#timestamp,LO_Frequency,Hit 
1501365615.9,286046982.9,N
1501365635.7,286046983.0,N
1501365655.6,286046986.3,N
1501365675.4,286046987.7,N
1501365695.2,286046986.3,N
1501365715.1,286046982.3,N
1501365716.0,286046982.3,N
1501365735.8,286046979.3,N
1501365755.6,286046981.5,N
1501365775.5,286046978.1,N
1501365795.3,286046978.8,N
1501365815.1,286046975.8,N
1501365835.8,286046976.1,N
1501365855.7,286046977.3,N
1501365875.5,286046980.5,N
1501365895.3,286046982.2,N
1501365915.2,286046983.6,N
1501365935.9,286046983.3,N
1501365955.7,286046984.1,N
1501365975.6,286046980.6,N
1501365995.4,286046980.1,N
1501366015.2,286046978.3,N
1501366035.1,286046979.9,N
1501366036.0,286046979.9,N
1501366055.8,286046980.3,N
1501366075.6,286046980.4,N
1501366095.5,286046976.1,N
1501366115.3,286046979.9,N
1501366135.1,286046978.2,N
1501366155.9,286046976.3,N
1501366175.7,286046977.0,N
1501366195.5,286046976.7,N
1501366215.3,286046974.3,N
1501366235.2,286046976.0,N
1501366255.0,286046976.8,N
1501366255.9,286046976.8,N
1501366275.7,286046976.9,N
1501366295.6,286046978.6,N
1501366315.4,286046977.6,N
1501366335.2,286046978.8,N
1501366355.1,286046977.1,N
1501366356.0,286046977.1,N
1501366375.8,286046976.3,N
1501366395.6,286046977.4,N
1501366415.5,286046978.0,N
1501366435.3,286046977.3,N
1501366455.1,286046981.7,N
1501366475.9,286046983.7,N
1501366495.7,286046985.0,N
1501366515.5,286046984.7,N
1501366535.3,286046984.7,N
1501366555.2,286046985.3,N
1501366575.0,286046988.3,N
1501366575.9,286046988.3,N
1501366595.7,286046986.9,N
1501366615.6,286046987.6,N
1501366635.4,286046986.9,N
1501366655.2,286046991.5,N
1501366675.1,286046990.7,N
1501366676.0,286046990.7,N
1501366695.8,286046994.5,N
1501366715.6,286046992.4,N
1501366735.5,286046994.7,N
1501366755.3,286046994.2,N
1501366775.1,286046993.7,N
1501366795.9,286046996.4,N
1501366815.7,286046993.3,N
1501366835.5,286046993.8,N
1501366855.4,286046995.9,N
1501366875.2,286046995.8,N
1501366895.0,286046994.9,N
1501366895.9,286046994.9,N
1501366915.8,286046998.0,N
1501366935.6,286046997.2,N
1501366955.4,286046996.9,N
1501366975.2,286047000.8,N
1501366995.1,286047002.7,N
1501366996.0,286047002.7,N
1501367015.8,286047002.2,N
1501367035.6,286047001.6,N
1501367055.5,286047003.9,N
1501367075.3,286047002.1,N
1501367095.1,286047002.1,N
1501367115.9,286047002.7,N
1501367135.7,286047001.3,N
1501367155.5,286047003.1,N
1501367175.4,286047005.6,N
1501367195.2,286047007.0,N
1501367215.0,286047006.8,N
1501367215.9,286047006.8,N
1501367235.8,286047007.2,N
1501367255.6,286047005.0,N
1501367275.4,286047005.0,N
1501367295.3,286047006.6,N
1501367315.1,286047008.1,N
1501367316.0,286047008.1,N
1501367335.8,286047008.9,N
1501367355.7,286047006.9,N
1501367375.5,286047007.9,N
1501367395.3,286047006.3,N
1501367415.1,286047006.2,N
1501367435.9,286047004.8,N
1501367455.7,286047003.6,N
1501367475.5,286047005.6,N
1501367495.4,286047006.8,N
1501367515.2,286047006.6,N
1501367535.0,286047006.5,N
1501367535.9,286047006.5,N
1501367555.8,286047007.1,N
1501367575.6,286047005.2,N
1501367595.4,286047005.9,N
1501367615.3,286047007.0,N
1501367635.1,286047006.6,N
1501367636.0,286047006.6,N
1501367655.8,286047009.2,N
1501367675.7,286047010.8,N
1501367695.5,286047007.8,N
1501367715.3,286047010.0,N
1501367735.1,286047008.0,N
1501367755.9,286047007.5,N
1501367775.7,286047003.3,N
1501367795.5,286047004.7,N
1501367815.4,286047009.0,N
1501367835.2,286047007.8,N
1501367855.0,286047012.3,N
1501367855.9,286047012.3,N
1501367875.8,286047011.3,N
1501367895.6,286047012.8,N
1501367915.4,286047017.0,N
1501367935.3,286047015.6,N
1501367955.1,286047009.9,N
1501367956.0,286047009.9,N
1501367975.8,286047009.0,N
1501367995.7,286047008.1,N
1501368015.5,286047009.8,N
1501368035.3,286047009.5,N
1501368055.1,286047011.7,N
1501368075.9,286047012.4,N
1501368095.7,286047011.4,N
1501368115.5,286047013.9,N
1501368135.4,286047012.7,N
1501368155.2,286047011.3,N
1501368175.0,286047012.3,N
1501368175.9,286047012.3,N
1501368195.8,286047009.3,N
1501368215.9,286047013.2,N
1501368235.7,286047014.6,N
1501368255.5,286047013.0,N
1501368275.4,286047015.2,N
1501368295.2,286047014.2,N
1501368315.0,286047014.5,N
1501368315.9,286047014.5,N
1501368335.8,286047016.8,N
1501368355.6,286047015.7,N
1501368375.4,286047015.8,N
1501368395.3,286047014.3,N
1501368415.1,286047014.9,N
1501368416.0,286047014.9,N
1501368435.8,286047011.5,N
1501368455.7,286047011.6,N
1501368475.5,286047012.6,N
1501368495.3,286047014.7,N
1501368515.1,286047014.8,N
1501368535.9,286047015.9,N
1501368555.7,286047016.5,N
1501368575.5,286047017.0,N
1501368595.4,286047016.5,N
1501368615.2,286047020.4,N
1501368635.0,286047019.4,N
1501368635.9,286047019.4,N
1501368655.8,286047017.4,N
1501368675.6,286047018.7,N
1501368695.4,286047012.9,N
1501368715.3,286047014.2,N
1501368735.1,286047015.9,N
1501368736.0,286047015.9,N
1501368755.8,286047016.2,N
1501368775.7,286047017.0,N
1501368795.5,286047016.5,N
1501368815.3,286047020.4,N
1501368835.2,286047021.1,N
1501368855.9,286047021.0,N
1501368875.7,286047019.3,N
1501368895.5,286047016.1,N
1501368915.4,286047018.2,N
1501368935.2,286047018.5,N
1501368955.0,286047020.2,N
1501368955.9,286047020.2,N
1501368975.8,286047017.5,N
1501368995.6,286047021.7,N
1501369015.4,286047021.8,N
1501369035.3,286047022.7,N
1501369055.1,286047022.6,N
1501369056.0,286047022.6,N
1501369075.8,286047020.8,N
1501369095.7,286047020.7,N
1501369115.5,286047019.8,N
1501369135.3,286047021.3,N
1501369155.2,286047021.3,N
1501369175.9,286047020.7,N
1501369195.7,286047023.3,N
